This demonstration page uses our WeatherBlox Daily Observations layout. Learn more.

Left ArrowRight Arrow

38.83388, -104.82136

Hourly Observations for May 28, 2018

Temp ( °F °C ) Dew Point ( °F °C ) Humidity (%) Winds ( mph kmh ) Pressure ( in mb ) Visibility ( mi km ) Precip ( " mm )
12:58 am 00:58 Clear 59 14.9 40 4.5 50 50 NW 22 35 29.41 996 10 16 0.00 0.00
1:58 am 01:58 Clear 57 13.8 40 4.6 54 54 NNW 22 35 29.44 997 10 16 0.00 0.00
2:50 am 02:50 Clear 59 15 37 3 45 45 N 17 28 29.46 998 10 16 0.00 0.00
2:58 am 02:58 Clear 56 13.5 39 3.9 53 53 N 20 31 29.44 997 10 16 0.00 0.00
3:58 am 03:58 Clear 56 13.3 38 3.6 52 52 NNW 16 26 29.46 998 10 16 0.00 0.00
4:58 am 04:58 Clear 54 12.3 40 4.6 60 60 NNW 20 31 29.47 998 10 16 0.00 0.00
5:58 am 05:58 Sunny 54 12.3 42 5.5 63 63 NW 13 20 29.50 999 10 16 0.00 0.00
6:58 am 06:58 Sunny 55 12.9 44 6.6 66 66 N 15 24 29.50 999 10 16 0.00 0.00
7:58 am 07:58 Sunny 57 13.7 46 7.5 66 66 N 18 30 29.49 999 10 16 0.00 0.00
8:58 am 08:58 Sunny 58 14.5 47 8.5 67 67 N 15 24 29.49 999 10 16 0.00 0.00
9:58 am 09:58 Sunny 62 16.4 46 8 58 58 N 12 19 29.51 999 10 16 0.00 0.00
10:58 am 10:58 Sunny 66 19 46 8 49 49 N 5 7 29.49 999 10 16 0.00 0.00
11:58 am 11:58 Mostly Cloudy 68 19.9 44 6.4 42 42 SSE 3 6 29.49 999 10 16 0.00 0.00
12:58 pm 12:58 Mostly Cloudy 67 19.5 46 7.7 47 47 NNW 8 13 29.47 998 10 16 0.00 0.00
1:58 pm 13:58 Mostly Cloudy 67 19.5 45 7 44 44 SE 3 6 29.49 999 10 16 0.00 0.00
2:31 pm 14:31 Mostly Cloudy with Light Rain 66 19 45 7 46 46 E 21 33 29.46 998 10 16 0.00 0.00
2:39 pm 14:39 Mostly Cloudy with Light Rain 64 18 34 1 32 32 ENE 13 20 29.45 997 10 16 0.00 0.00
2:58 pm 14:58 Mostly Cloudy with Light Showers 63 17.4 35 1.4 34 34 Calm 29.48 998 10 16 0.00 0.00
3:20 pm 15:20 Mostly Cloudy 61 16 45 7 55 55 S 6 9 29.48 998 10 16 0.00 0.00
3:34 pm 15:34 Cloudy with Thunderstorms 61 16 46 8 59 59 Calm 29.49 999 10 16 0.00 0.00
3:56 pm 15:56 Mostly Cloudy with Nearby Thunderstorms 63 17 46 8 56 56 N 3 6 29.47 998 10 16 0.00 0.00
3:58 pm 15:58 Mostly Cloudy with Nearby Thunderstorms 63 17 47 8.3 57 57 N 3 6 29.47 998 10 16 0.00 0.00
4:58 pm 16:58 Mostly Cloudy 61 16.1 47 8.6 61 61 N 5 7 29.52 1000 10 16 0.00 0.00
5:58 pm 17:58 Mostly Sunny 61 16.1 45 7.3 56 56 NNW 17 28 29.48 998 10 16 0.00 0.00
6:58 pm 18:58 Sunny 61 15.9 42 5.6 51 51 NNW 17 28 29.43 997 10 16 0.00 0.00
7:58 pm 19:58 Mostly Cloudy 59 15.2 42 5.4 52 52 NW 15 24 29.43 997 10 16 0.00 0.00
8:58 pm 20:58 Mostly Clear 60 15.8 36 2.2 40 40 NW 7 11 29.44 997 10 16 0.00 0.00
9:58 pm 21:58 Mostly Cloudy 62 16.4 37 2.5 39 39 NNW 6 9 29.48 998 10 16 0.00 0.00
10:58 pm 22:58 Mostly Cloudy 55 13 40 4.5 57 57 W 8 13 29.60 1002 10 16 0.00 0.00
11:58 pm 23:58 Mostly Cloudy 56 13.2 42 5.4 59 59 NNW 10 17 29.59 1002 10 16 0.00 0.00

Powered by AerisWeather